Location: Kalberh�ni
(46.4610°N, 7.2453°E)
Time: 18:57:32
(UTC+00:00)

Cosmos 1626 - Pass Details

Date: 23 October 2021
Orbit: 487 x 492 km, 82.5° (Epoch: 03 December)

Event Time Altitude Azimuth Distance (km) Brightness Sun altitude
Rises 04:01:47 0° 179° (S) 2,560 5.7 -20.9°
Reaches altitude 10° 04:03:54 10° 175° (S) 1,683 4.8 -20.6°
Maximum altitude 04:07:31 59° 96° (E) 577 2.6 -19.9°
Drops below altitude 10° 04:11:11 10° 16° (NNE) 1,700 5.1 -19.3°
Sets 04:13:20 0° 13° (NNE) 2,587 6.0 -18.9°
